Вернуться в каталог

JILIN-01 KUANFU 02B 6

АктивенНаукаSSO
NORAD 61194·PAYLOAD·🇨🇳 China

Запущен Sep 20, 2024 с Taiyuan Satellite Launch Center

Loading…

Ближайшие Пролёты (ближайшие 24 часа)

TLE

СвежийSource: Space-Track

Эпоха: Sep 14, 2026, 14:18 UTC

1 61194U 24169F   26257.59596471  .00003341  00000-0  21247-3 0  9991
2 61194  97.5531 345.7845 0016702  20.6451 339.5449 15.09389661109323

Отслеживайте JILIN-01 KUANFU 02B 6 в реальном времени с AllMySat

Download on the App Store